CZ-4B DEB, 46480

Orbit data source: Space-Track

CZ-4B DEB, 46480 is space debris in SSO originally from a launch on Sun, 27 Sep 2020 UTC launched from the Taiyaun Space Center, China (TSC). Debris objects in space refer to the collection of defunct objects orbiting the Earth. Examples of debris include non-operational satellites, rocket bodies, and fragments generated from explosions, collisions, or faulty payload assembly.

Loading next visibility...
Identifier
46480, 2020-067C
Orbit
SSO
Country
Flag of CNCN / PRC
Related business
Manufacturer
SAST
Mission
Spacecraft
Bus & Motor
Unknown
Mass
Unknown
Launch date (UTC)
2020-09-27 (5 years ago)
Launch vehicle
Unknown
Launch site
Taiyaun Space Center, China (TSC)
Object type
Payload
Rocket body
Debris
Shape & HBR
Unknown shape, 2.7 m
Radar Cross Section
Large (>1 m²)

Expand to show TLE details & history
Last TLE update: 12 hours ago

TLE from 12 hours ago
0 CZ-4B DEB
1 46480U 20067C   25307.75137243  .00042091  00000-0  16305-2 0  9999
2 46480  97.8791  56.0343 0015489 347.7647  12.3212 15.25926595277737
Epoch: 2025-11-03T18:01Z
TLE epoch observation values (Epoch: 2025-11-03T18:01:58.577Z)
Latitude
-0.00001°
Longitude
102.29198°
Altitude
480.697 km
Speed
7.631 km/s
True Right ascension
03h 44m 08s
True Declination
0° 00' 00"
Sunlit
Object was in full shadow at epoch
Visualization orbit readout
Latitude
Unknown
Longitude
Unknown
Altitude
Unknown
Speed
Unknown
Apparent Right ascension
Unknown
Apparent Declination
Unknown
Sunlit
N/A
Visualization observer readout
Local Sidereal Time
01:39:29
Azimuth
Unknown
Elevation
Unknown
Doppler factor
Unknown
Orbital elements
Apogee altitude
495.614 km
Perigee altitude
474.353 km
Semi-major axis
6,863.12 km
Eccentricity
0.00155
Inclination
97.8791°
RAAN
56.0343°
Arg. of periapsis
347.7647°
True anomaly
12.35915°
Mean anomaly
12.3212°
Eccentric anomaly
12.34017°
Mean motion
3.81734 °/min
Orbital period
94.31 mins
BSTAR
0.0016305
Loading maneuver chart data...
Computing Atmospheric mass density...
Loading historical data...
Loading historical data...
Loading historical data...
Loading historical data...
Loading historical data...
Loading historical data...
Loading historical data...

Documentation

Showing up to 5 results
|